Weather History for Hillsdale, MI

Change the Weather History Date:

Tuesday, January 15, 2013

  Actual Average Record
Temperature  
Mean Temperature 20 °F -  
Max Temperature 28 °F 28 °F 56 °F (1953)
Min Temperature 13 °F 12 °F -16 °F (1984)
Degree Days  
Heating Degree Days 44    
Moisture  
Dew Point 17 °F    
Average Humidity 81    
Maximum Humidity 93    
Minimum Humidity 64    
Precipitation  
Precipitation 0.00 in - - ()
Sea Level Pressure  
Sea Level Pressure 30.29 in    
Wind  
Wind Speed 1 mph (ESE)    
Max Wind Speed 7 mph    
Max Gust Speed -    
Visibility 10 miles    
Events      
Averages and records for this station are not official NWS values.
T = Trace of Precipitation, MM = Missing Value Source: NWS Daily Summary

Daily Weather History Graph

Daily Weather History Graph

Search for Another Location

Airport:

Trip Planner

Search our weather history database for the weather conditions in past years. The results will help you decide how hot, cold, wet, or windy it might be!

Date:

Astronomy

Jan. 15, 2013 Rise Set
Actual Time 8:03 AM EST 5:32 PM EST
Civil Twilight 7:32 AM EST 6:03 PM EST
Nautical Twilight 6:58 AM EST 6:37 PM EST
Astronomical Twilight 6:24 AM EST 7:11 PM EST
Moon 10:03 AM EST (1/15) 10:26 PM EST (1/15)
Length of Visible Light 10h 30m
Length of Day
9h 29m
Waxing Crescent, 19% of the Moon is Illuminated
Jan 15
Waxing Crescent
Jan 18
First Quarter
Jan 26
Full
Feb 3
Last Quarter
Feb 10
New

Hourly Weather History & Observations

Time (EST) Temp. Windchill Dew Point Humidity Pressure Visibility Wind Dir Wind Speed Gust Speed Precip Events Conditions
12:15 AM 16.9 °F - 14.9 °F 92% 30.34 in 10.0 mi Calm Calm - N/A   Clear
12:34 AM 16.5 °F - 14.7 °F 93% 30.34 in 10.0 mi Calm Calm - N/A   Clear
12:55 AM 16.5 °F - 14.5 °F 92% 30.34 in 7.0 mi Calm Calm - N/A   Clear
1:15 AM 16.2 °F - 14.2 °F 92% 30.35 in 7.0 mi Calm Calm - N/A   Clear
1:35 AM 16.2 °F - 14.0 °F 91% 30.35 in 10.0 mi Calm Calm - N/A   Clear
1:55 AM 16.2 °F - 14.2 °F 92% 30.35 in 10.0 mi Calm Calm - N/A   Clear
2:14 AM 16.2 °F - 14.2 °F 92% 30.35 in 10.0 mi Calm Calm - N/A   Clear
2:35 AM 15.3 °F - 12.9 °F 90% 30.36 in 10.0 mi Calm Calm - N/A   Clear
2:55 AM 15.4 °F - 13.3 °F 91% 30.36 in 7.0 mi Calm Calm - N/A   Clear
3:14 AM 15.4 °F - 13.3 °F 91% 30.36 in 10.0 mi Calm Calm - N/A   Clear
3:35 AM 15.1 °F - 12.6 °F 90% 30.35 in 10.0 mi Calm Calm - N/A   Clear
4:15 AM 15.1 °F - 12.7 °F 90% 30.34 in 7.0 mi Calm Calm - N/A   Clear
4:34 AM 14.4 °F - 12.4 °F 92% 30.35 in 7.0 mi Calm Calm - N/A   Clear
4:55 AM 14.9 °F - 12.7 °F 91% 30.34 in 10.0 mi Calm Calm - N/A   Clear
5:14 AM 15.3 °F - 13.1 °F 91% 30.34 in 10.0 mi Calm Calm - N/A   Clear
5:54 AM 15.6 °F - 13.5 °F 91% 30.34 in 10.0 mi Calm Calm - N/A   Clear
6:15 AM 16.2 °F - 13.8 °F 90% 30.35 in 10.0 mi Calm Calm - N/A   Clear
6:33 AM 15.3 °F - 12.9 °F 90% 30.35 in 10.0 mi Calm Calm - N/A   Clear
6:54 AM 14.5 °F - 12.0 °F 90% 30.36 in 10.0 mi Calm Calm - N/A   Clear
7:15 AM 14.7 °F - 12.4 °F 90% 30.36 in 10.0 mi Calm Calm - N/A   Clear
7:35 AM 14.2 °F - 11.8 °F 90% 30.36 in 10.0 mi Calm Calm - N/A   Clear
7:54 AM 13.6 °F - 11.5 °F 91% 30.35 in 10.0 mi Calm Calm - N/A   Clear
8:15 AM 14.4 °F - 11.8 °F 90% 30.36 in 10.0 mi Calm Calm - N/A   Clear
8:34 AM 14.9 °F - 12.4 °F 90% 30.37 in 10.0 mi Calm Calm - N/A   Clear
8:55 AM 16.5 °F - 14.4 °F 91% 30.37 in 10.0 mi Calm Calm - N/A   Clear
9:14 AM 18.3 °F - 16.2 °F 91% 30.37 in 10.0 mi Calm Calm - N/A   Clear
9:35 AM 19.9 °F - 17.4 °F 90% 30.37 in 10.0 mi Calm Calm - N/A   Clear
9:55 AM 21.6 °F - 18.5 °F 88% 30.36 in 10.0 mi Calm Calm - N/A   Clear
10:15 AM 23.4 °F 15.2 °F 19.2 °F 84% 30.35 in 10.0 mi East 6.9 mph - N/A   Clear
10:34 AM 24.3 °F 19.9 °F 20.1 °F 84% 30.36 in 10.0 mi East 3.5 mph - N/A   Clear
10:55 AM 25.2 °F 20.9 °F 19.6 °F 79% 30.37 in 10.0 mi ESE 3.5 mph - N/A   Clear
11:15 AM 25.9 °F 20.3 °F 18.3 °F 73% 30.36 in 10.0 mi East 4.6 mph - N/A   Clear
11:34 AM 26.1 °F - 18.7 °F 74% 30.37 in 10.0 mi Calm Calm - N/A   Clear
11:55 AM 26.8 °F 22.8 °F 18.0 °F 69% 30.36 in 10.0 mi ESE 3.5 mph - N/A   Clear
12:15 PM 27.0 °F - 18.5 °F 70% 30.34 in 10.0 mi Calm Calm - N/A   Clear
12:34 PM 27.7 °F 23.8 °F 18.5 °F 68% 30.32 in 10.0 mi SSE 3.5 mph - N/A   Scattered Clouds
12:55 PM 27.1 °F - 17.4 °F 67% 30.28 in 10.0 mi Calm Calm - N/A   Scattered Clouds
1:14 PM 27.5 °F - 17.8 °F 67% 30.31 in 10.0 mi Calm Calm - N/A   Clear
1:34 PM 27.7 °F - 17.8 °F 66% 30.30 in 10.0 mi Calm Calm - N/A   Clear
1:54 PM 27.9 °F - 17.8 °F 66% 30.30 in 10.0 mi Calm Calm - N/A   Clear
2:14 PM 27.9 °F - 17.4 °F 65% 30.28 in 10.0 mi Calm Calm - N/A   Scattered Clouds
2:34 PM 28.4 °F 24.6 °F 18.5 °F 66% 30.26 in 10.0 mi ENE 3.5 mph - N/A   Scattered Clouds
2:55 PM 28.2 °F - 17.6 °F 64% 30.26 in 10.0 mi Calm Calm - N/A   Clear
3:14 PM 28.0 °F - 17.6 °F 65% 30.27 in 10.0 mi Calm Calm - N/A   Clear
3:35 PM 28.2 °F - 17.4 °F 64% 30.27 in 10.0 mi Calm Calm - N/A   Clear
4:15 PM 28.0 °F 24.2 °F 18.5 °F 67% 30.25 in 10.0 mi SE 3.5 mph - N/A   Clear
4:34 PM 28.0 °F 22.8 °F 19.0 °F 69% 30.25 in 10.0 mi SSE 4.6 mph - N/A   Clear
4:54 PM 27.9 °F 21.5 °F 18.5 °F 68% 30.25 in 10.0 mi SE 5.8 mph - N/A   Clear
5:15 PM 27.7 °F 23.8 °F 18.7 °F 69% 30.24 in 10.0 mi SSE 3.5 mph - N/A   Clear
5:34 PM 27.3 °F 22.0 °F 19.0 °F 71% 30.26 in 10.0 mi South 4.6 mph - N/A   Clear
5:55 PM 27.1 °F - 19.2 °F 72% 30.25 in 10.0 mi Calm Calm - N/A   Clear
6:14 PM 27.0 °F - 19.0 °F 72% 30.24 in 10.0 mi Calm Calm - N/A   Clear
6:35 PM 27.0 °F - 19.2 °F 73% 30.24 in 10.0 mi Calm Calm - N/A   Clear
6:54 PM 27.0 °F - 18.9 °F 72% 30.23 in 10.0 mi Calm Calm - N/A   Clear
7:15 PM 26.4 °F - 19.9 °F 77% 30.23 in 10.0 mi Calm Calm - N/A   Clear
7:34 PM 26.6 °F - 20.7 °F 78% 30.22 in 10.0 mi Calm Calm - N/A   Clear
7:54 PM 26.4 °F - 21.2 °F 81% 30.21 in 10.0 mi Calm Calm - N/A   Clear
8:15 PM 25.3 °F - 19.9 °F 80% 30.19 in 10.0 mi Calm Calm - N/A   Clear
8:34 PM 25.7 °F - 20.1 °F 79% 30.19 in 10.0 mi Calm Calm - N/A   Clear
8:55 PM 25.0 °F - 21.0 °F 85% 30.18 in 10.0 mi Calm Calm - N/A   Scattered Clouds
9:14 PM 24.6 °F - 21.6 °F 88% 30.17 in 10.0 mi Calm Calm - N/A   Scattered Clouds
9:35 PM 24.8 °F 20.5 °F 21.4 °F 87% 30.16 in 10.0 mi East 3.5 mph - N/A   Scattered Clouds
9:54 PM 25.2 °F - 21.0 °F 84% 30.16 in 10.0 mi Calm Calm - N/A   Scattered Clouds
10:15 PM 25.2 °F 20.9 °F 20.7 °F 83% 30.15 in 10.0 mi East 3.5 mph - N/A   Scattered Clouds
10:34 PM 25.2 °F - 20.3 °F 82% 30.14 in 10.0 mi Calm Calm - N/A   Scattered Clouds
10:54 PM 24.6 °F 20.3 °F 20.7 °F 85% 30.12 in 10.0 mi ESE 3.5 mph - N/A   Scattered Clouds
11:15 PM 24.6 °F - 19.8 °F 82% 30.11 in 10.0 mi Calm Calm - N/A   Scattered Clouds
11:34 PM 23.9 °F - 20.1 °F 85% 30.11 in 10.0 mi Calm Calm - N/A   Clear
11:55 PM 23.5 °F - 19.2 °F 84% 30.10 in 10.0 mi Calm Calm - N/A   Clear